Voltar ao catálogo

OPTUS A1 R/B

PAM-D

AtivoGTO
NORAD 15996·ROCKET BODY·🇺🇸 United States

Lançado Aug 27, 1985 de Cape Canaveral Space Force Station

Loading…

TLE

ObsoletoSource: Space-Track

Época: Sep 14, 2026, 00:43 UTC

1 15996U 85076E   26257.03044690  .00000222  00000-0  12935-2 0  9992
2 15996  25.8145 157.7322 7115312  23.2468 357.1991  2.39071896297063

Acompanhe OPTUS A1 R/B em tempo real com AllMySat

Download on the App Store